Weather in Ust-Chorna

Ukraine / Zakarpattia District     48°19′08″N   23°56′33″E
temp.,
°C
wind,
m/s
gust,
m/s
humid.,
%
clouds,
%
prec.,
mm/h
press.,
hPa
HPBL,
m
12 august, fri
fri1200:00+9ne32930 0.0 102145
03:00+9ne32930 0.0 102240
06:00+9ne32920 0.0 102141
09:00+16ne22640 0.0 1020311
12:00+22e134611 0.0 10191550
15:00+20ene236556 0.8 10181060
18:00+20ene3459100 0.3 1017900
21:00+15ne2388100 0.3 101864
13 august, sat
sat1300:00+13ne229697 0.0 101846
03:00+12ne2295100 0.0 101740
06:00+11ne229688 0.0 101641
09:00+17ene227511 0.0 1014368
12:00+22ese115846 0.2 10131413
15:00+19ne228373 2.9 1012431
18:00+18ne228993 4.9 1012203
21:00+14ne3295100 6.5 101245
14 august, sun
sun1400:00+14ne239778 0.0 101254
03:00+13ne229797 0.2 101145
06:00+13ne229767 0.0 101038
09:00+17ne2288100 0.1 1010193
12:00+21ene1172100 1.1 1009623
15:00+23ne1162100 3.4 10091020
18:00+19ene2283100 1.5 1009104
21:00+15ne229296 4.2 100935
15 august, mon
mon1500:00+14ne2293100 0.7 100930
03:00+13ne2293100 0.7 100926
06:00+13ne229285 0.0 100820
09:00+18e117993 0.1 1008149
12:00+20sw1176100 1.6 1008595
15:00+20wnw1182100 5.7 1008272
18:00+19ne128681 2.1 1008117
21:00+15ne219568 4.8 100924
16 august, tue
tue1600:00+13nne119569 2.5 101021
03:00+14ene11919 2.7 101012
06:00+13ene119039 0.1 101011
09:00+17sse128741 0.6 1010134
12:00+21sw237326 1.9 1010460
15:00+23wsw2567100 4.2 10101212
18:00+22wsw246172 0.7 1010841
21:00+16ene217950 0.9 101113